El Hierro > ESTACION METEOROLÓGICA Punto Limpio Frontera

DATOS ACTUALES Online

Ultima actulizacion 30 minutos

23.3 ºC

Temperatura

64

Humedad (%)

1012.8

Presión (mb)

0

Precipitación (mm)

5 SO

Viento (Km/h)

DATOS DIARIOS

Temperatura últimas 24 horas (ºC)

Humedad últimas 24 horas (%)

Presión atmosférica últimas 24 horas (mb)

Precipitaciones últimas 23 horas (mm)

Viento últimas 24 horas (Km/h)

Hora Temperatura (°C) ºC Precipitación (mm) mm Presión (mb) mb Humedad (%) % Viento (Km/h) km/h
29 - 13:00 22.9 0 1012 68 10.4 O
29 - 14:00 23.3 0 1012 65 11.5 O
29 - 15:00 23.7 0 1011 65 9.4 O
29 - 16:00 23.5 0 1011 65 10.4 SO
29 - 17:00 23.8 0 1011 65 7.2 SO
29 - 18:00 23.7 0 1011 65 10.8 SO
29 - 19:00 23.2 0 1011 65 5.8 S
29 - 20:00 22.9 0 1011 66 6.5 SO
29 - 21:00 21.9 0 1011 69 2.9 O
29 - 22:00 21.4 0 1012 71 1.1 SO
29 - 23:00 21.3 0 1012 72 0 SO
30 - 00:00 21 0 1012 67 3.6 NW
30 - 01:00 20.7 0 1012 68 3.6 N
30 - 02:00 20.8 0 1012 68 6.5 N
30 - 03:00 20.4 0 1011 70 2.5 N
30 - 04:00 18.8 0 1011 69 8.3 NW
30 - 05:00 19.6 0 1011 69 5.4 N
30 - 06:00 18.7 0 1011 68 7.2 NW
30 - 07:00 18.2 0 1011 73 6.1 NW
30 - 08:00 18.9 0 1012 74 5 NW
30 - 09:00 22.1 0 1012 69 5.8 O
30 - 10:00 22.4 0 1012 69 8.3 O
30 - 11:00 22.7 0 1013 68 6.1 S
30 - 12:00 23.3 0 1013 65 8.3 S
30 - 13:00 23.3 0 1013 64 5 SO
Apalmet utiliza cookies propias y de terceros para mejorar la usabilidad y la experiencia web. Política de cookies.